Regional Weather Roundup
Issued by NWS Cleveland, OH

Home | Current Version | Previous Version | Text Only | Print | Product List | Glossary Off
Versions: 1 2 3 4 5 6 7 8 9 10 11 12 13 14 15 16 17 18 19 20 21 22 23 24 25 26 27 28 29 30 31 32 33 34 35 36 37 38 39 40 41 42 43 44 45 46 47 48 49 50

725
ASUS41 KCLE 250900
RWRCLE
OHIO REGIONAL WEATHER ROUNDUP
NATIONAL WEATHER SERVICE WILMINGTON, OH
500 AM EDT SUN SEP 25 2016

NOTE: "FAIR" INDICATES FEW OR NO CLOUDS BELOW 12,000 FEET WITH NO
SIGNIFICANT WEATHER AND/OR OBSTRUCTIONS TO VISIBILITY.

OHZ001>008-015>018-024>027-034-035-043-044-251000-
   NORTHWEST OHIO

CITY           SKY/WX    TMP DP  RH WIND       PRES   REMARKS
DEFIANCE       FAIR      55  50  83 CALM      30.18F
FINDLAY        FAIR      56  45  66 E8        30.17F
TOLEDO EXPRESS FAIR      52  52 100 CALM      30.19F
TOLEDO EXEC    FAIR      54  49  83 E6        30.20F
LIMA           FAIR      53  51  93 E5        30.17F
$$

OHZ009>014-019>023-028>033-038-089-251000-
   NORTHEAST OHIO

CITY           SKY/WX    TMP DP  RH WIND       PRES   REMARKS
CLE-HOPKINS    FAIR      55  43  63 E7        30.23S
CLE-LAKEFRONT  FAIR      57  42  57 E9        30.20S
CUY CO. ARPT   NOT AVBL
LORAIN-ELYRIA  FAIR      48  42  80 SE3       30.21S
ASHTABULA      FAIR      45  43  93 SE3       30.23S
AKRON-CANTON   FAIR      47  44  90 NE7       30.20S
WOOSTER        NOT AVBL
MANSFIELD      FAIR      51  47  86 NE3       30.19S
YOUNGSTOWN     FAIR      48  43  82 NE7       30.21S
$$

OHZ042-051>053-060>062-070>072-077>081-251000-
  SOUTHWEST OHIO

CITY           SKY/WX    TMP DP  RH WIND       PRES   REMARKS
CINC-COVINGTON FAIR      66  62  87 E7        30.13S
CINC-LUNKEN    FAIR      63  63 100 CALM      30.14S
HAMILTON       FAIR      60  57  89 CALM      30.15S
DAYTON         NOT AVBL
WRIGHT-PAT AFB CLEAR     59  54  84 NE5       30.15F
DAYTON GENERAL FAIR      60  54  80 E9        30.15S
WILMINGTON     FAIR      58  55  90 NE6       30.15S
$$

OHZ036-037-039>041-045>050-054>059-063>069-073>076-082>088-251000-
  CENTRAL AND SOUTHEAST OHIO

CITY           SKY/WX    TMP DP  RH WIND       PRES   REMARKS
COLUMBUS       FAIR      57  53  86 N5        30.16F
OSU AIRPORT    FAIR      54  52  93 NE5       30.16F
BOLTON FIELD   NOT AVBL
RICKENBACK AFB NOT AVBL
NEWARK         FAIR      55  51  86 CALM      30.17F
MARION         FAIR      50  47  89 NE5       30.18F
LANCASTER      FAIR      54  52  93 CALM      30.16F
ZANESVILLE     FAIR      53  50  89 CALM      30.17S
NEW PHILLY     FAIR      49  47  93 CALM      30.19F
$$




USA.gov is the U.S. government's official web portal to all federal, state and local government web resources and services.